SL-14 DEB, 45655

Orbit data source: Space-Track

SL-14 DEB, 45655 is space debris in LEO originally from a launch on Thu, 15 Aug 1991 UTC launched from the Plesetsk Missile And Space Complex (PKMTR). Debris objects in space refer to the collection of defunct objects orbiting the Earth. Examples of debris include non-operational satellites, rocket bodies, and fragments generated from explosions, collisions, or faulty payload assembly.

Loading next visibility...
Identifier
45655, 1991-056CZ
Orbit
LEO
Country
Flag of CISCIS
Related business
Manufacturer
Unknown
Mission
Spacecraft
Bus & Motor
Unknown
Mass
Unknown
Launch date (UTC)
1991-08-15 (35 years ago)
Launch vehicle
Unknown
Launch site
Plesetsk Missile And Space Complex (PKMTR)
Object type
Payload
Rocket body
Debris
Shape & HBR
Unknown shape, 0.1 m
Radar Cross Section
Small (<0.1 m²)

Expand to show TLE details & history
Last TLE update: 3 days ago

TLE from 3 days ago
0 SL-14 DEB
1 45655U 91056CZ  26170.45774468 -.00000192  00000-0 -66118-3 0  9996
2 45655  82.5382 186.5231 0111322  72.2422 289.0803 12.99895341301139
Epoch: 2026-06-19T10:59Z
TLE epoch observation values (Epoch: 2026-06-19T10:59:09.140Z)
Latitude
0.00005°
Longitude
114.04858°
Altitude
1,238.324 km
Speed
7.248 km/s
True Right ascension
12h 26m 05s
True Declination
0° 00' 00"
Sunlit
Object was in daylight at epoch
Visualization orbit readout
Latitude
Unknown
Longitude
Unknown
Altitude
Unknown
Speed
Unknown
Apparent Right ascension
Unknown
Apparent Declination
Unknown
Sunlit
N/A
Visualization observer readout
Local Sidereal Time
21:42:52
Azimuth
Unknown
Elevation
Unknown
Doppler factor
Unknown
Orbital elements
Apogee altitude
1,344.796 km
Perigee altitude
1,174.742 km
Semi-major axis
7,637.906 km
Eccentricity
0.01113
Inclination
82.5382°
RAAN
186.5231°
Arg. of periapsis
72.2422°
True anomaly
287.86931°
Mean anomaly
289.0803°
Eccentric anomaly
288.47535°
Mean motion
3.25148 °/min
Orbital period
110.72 mins
BSTAR
-0.00066118
Loading maneuver chart data...
Computing Atmospheric mass density...
Loading historical data...
Loading historical data...
Loading historical data...
Loading historical data...
Loading historical data...
Loading historical data...
Loading historical data...

Documentation

Showing up to 5 results
|